TimeEDT,TemperatureF,Dew PointF,Humidity,Sea Level PressureIn,VisibilityMPH,Wind Direction,Wind SpeedMPH,Gust SpeedMPH,PrecipitationIn,Events,Conditions,WindDirDegrees,DateUTC
12:51 AM,44.1,37.9,79,29.59,10.0,SSW,6.9,-,N/A,,Mostly Cloudy,210,2012-11-01 04:51:00
1:51 AM,43.0,37.0,80,29.58,10.0,SSW,8.1,-,N/A,,Clear,210,2012-11-01 05:51:00
2:51 AM,43.0,37.0,80,29.58,10.0,SSW,6.9,-,N/A,,Mostly Cloudy,210,2012-11-01 06:51:00
3:51 AM,42.1,37.0,82,29.57,10.0,SSW,6.9,-,N/A,,Mostly Cloudy,200,2012-11-01 07:51:00
4:51 AM,41.0,36.0,82,29.58,10.0,SSW,8.1,-,N/A,,Mostly Cloudy,210,2012-11-01 08:51:00
5:51 AM,41.0,36.0,82,29.58,10.0,SW,8.1,-,N/A,,Scattered Clouds,230,2012-11-01 09:51:00
6:51 AM,41.0,36.0,82,29.58,10.0,SW,8.1,-,N/A,,Scattered Clouds,220,2012-11-01 10:51:00
7:51 AM,42.1,36.0,79,29.60,10.0,SW,8.1,-,N/A,,Scattered Clouds,220,2012-11-01 11:51:00
8:51 AM,46.0,37.9,73,29.60,10.0,SW,9.2,-,N/A,,Mostly Cloudy,220,2012-11-01 12:51:00
9:51 AM,48.9,37.9,66,29.60,10.0,WSW,6.9,-,N/A,,Mostly Cloudy,240,2012-11-01 13:51:00
10:51 AM,51.1,37.0,59,29.60,10.0,WSW,17.3,-,N/A,,Mostly Cloudy,250,2012-11-01 14:51:00
11:51 AM,51.1,37.0,59,29.60,10.0,West,15.0,-,N/A,,Mostly Cloudy,270,2012-11-01 15:51:00
12:51 PM,52.0,37.9,59,29.59,10.0,West,16.1,-,N/A,,Mostly Cloudy,270,2012-11-01 16:51:00
1:51 PM,51.1,37.9,61,29.57,10.0,WSW,16.1,-,N/A,,Overcast,250,2012-11-01 17:51:00
2:51 PM,52.0,37.9,59,29.57,10.0,West,16.1,-,N/A,,Overcast,270,2012-11-01 18:51:00
3:51 PM,51.1,37.9,61,29.58,10.0,WSW,16.1,-,N/A,,Overcast,250,2012-11-01 19:51:00
4:51 PM,52.0,37.9,59,29.59,10.0,West,13.8,-,N/A,,Overcast,270,2012-11-01 20:51:00
5:51 PM,50.0,37.0,61,29.60,10.0,West,9.2,20.7,N/A,,Overcast,270,2012-11-01 21:51:00
6:51 PM,50.0,37.9,63,29.61,10.0,WSW,11.5,-,N/A,,Overcast,240,2012-11-01 22:51:00
7:51 PM,48.9,39.0,69,29.62,10.0,WSW,10.4,-,N/A,,Mostly Cloudy,250,2012-11-01 23:51:00
8:51 PM,48.0,39.0,71,29.62,10.0,SW,11.5,-,N/A,,Mostly Cloudy,230,2012-11-02 00:51:00
9:51 PM,48.0,39.0,71,29.62,10.0,SW,10.4,-,N/A,,Mostly Cloudy,230,2012-11-02 01:51:00
10:51 PM,48.0,39.0,71,29.62,10.0,WSW,11.5,-,N/A,,Overcast,240,2012-11-02 02:51:00
11:51 PM,48.2,39.2,71,29.63,10.0,WSW,9.2,-,N/A,,Overcast,250,2012-11-02 03:51:00